TimeCDT,TemperatureF,Dew PointF,Humidity,Sea Level PressureIn,VisibilityMPH,Wind Direction,Wind SpeedMPH,Gust SpeedMPH,PrecipitationIn,Events,Conditions,WindDirDegrees,DateUTC
12:15 AM,48.2,39.2,71,29.68,7.0,ESE,8.1,-,N/A,,Overcast,110,2013-03-24 05:15:00
12:35 AM,48.2,39.2,71,29.69,7.0,North,9.2,-,N/A,,Overcast,10,2013-03-24 05:35:00
12:55 AM,48.2,39.2,71,29.68,8.0,ENE,4.6,-,N/A,,Overcast,60,2013-03-24 05:55:00
1:15 AM,48.2,39.2,71,29.68,7.0,NE,4.6,-,N/A,,Overcast,40,2013-03-24 06:15:00
1:35 AM,48.2,39.2,71,29.68,6.0,North,5.8,-,N/A,,Overcast,10,2013-03-24 06:35:00
1:55 AM,48.2,39.2,71,29.67,5.0,NE,6.9,-,0.01,,Overcast,40,2013-03-24 06:55:00
2:16 AM,48.2,39.2,71,29.66,5.0,NNE,5.8,-,N/A,,Overcast,30,2013-03-24 07:16:00
2:35 AM,46.4,39.2,76,29.65,5.0,NNE,6.9,-,N/A,,Overcast,30,2013-03-24 07:35:00
2:55 AM,46.4,39.2,76,29.64,5.0,NNE,8.1,-,N/A,,Overcast,30,2013-03-24 07:55:00
3:15 AM,46.4,39.2,76,29.64,5.0,North,8.1,-,N/A,,Overcast,360,2013-03-24 08:15:00
3:35 AM,46.4,39.2,76,29.64,5.0,North,5.8,-,N/A,,Overcast,360,2013-03-24 08:35:00
3:55 AM,46.4,39.2,76,29.63,6.0,North,6.9,-,N/A,,Overcast,360,2013-03-24 08:55:00
4:15 AM,46.4,39.2,76,29.63,7.0,North,5.8,-,N/A,,Overcast,10,2013-03-24 09:15:00
4:35 AM,46.4,39.2,76,29.62,6.0,NNE,8.1,-,N/A,,Overcast,30,2013-03-24 09:35:00
4:55 AM,46.4,39.2,76,29.63,7.0,North,5.8,-,N/A,,Overcast,350,2013-03-24 09:55:00
5:15 AM,46.4,39.2,76,29.64,7.0,North,4.6,-,N/A,,Overcast,360,2013-03-24 10:15:00
5:35 AM,46.4,37.4,71,29.64,3.0,NNE,6.9,-,N/A,,Overcast,20,2013-03-24 10:35:00
5:55 AM,46.4,37.4,71,29.64,3.0,NE,4.6,-,0.01,,Overcast,40,2013-03-24 10:55:00
6:35 AM,46.4,37.4,71,29.63,2.0,ENE,6.9,-,N/A,,Overcast,60,2013-03-24 11:35:00
6:55 AM,46.4,37.4,71,29.63,2.5,ENE,4.6,-,N/A,,Overcast,60,2013-03-24 11:55:00
7:15 AM,46.4,37.4,71,29.64,2.5,NE,3.5,-,N/A,,Overcast,50,2013-03-24 12:15:00
7:36 AM,44.6,37.4,76,29.61,1.8,ENE,5.8,-,0.02,,Overcast,70,2013-03-24 12:36:00
7:55 AM,44.6,37.4,76,29.52,1.5,East,18.4,21.9,0.02,,Overcast,80,2013-03-24 12:55:00
8:15 AM,44.6,37.4,76,29.51,1.5,North,15.0,-,N/A,,Overcast,10,2013-03-24 13:15:00
8:35 AM,44.6,37.4,76,29.52,2.5,North,10.4,-,N/A,,Overcast,360,2013-03-24 13:35:00
8:55 AM,44.6,37.4,76,29.56,3.0,Calm,Calm,-,N/A,,Overcast,0,2013-03-24 13:55:00
9:15 AM,46.4,37.4,71,29.56,3.0,WSW,6.9,-,N/A,,Overcast,250,2013-03-24 14:15:00
9:35 AM,46.4,39.2,76,29.54,4.0,SSW,5.8,-,N/A,,Overcast,210,2013-03-24 14:35:00
9:55 AM,46.4,39.2,76,29.53,3.0,SW,6.9,-,N/A,,Overcast,220,2013-03-24 14:55:00
10:15 AM,48.2,39.2,71,29.55,3.0,SW,15.0,-,0.06,,Overcast,230,2013-03-24 15:15:00
10:35 AM,48.2,39.2,71,29.56,3.0,SW,16.1,23.0,0.07,,Overcast,230,2013-03-24 15:35:00
10:55 AM,46.4,39.2,76,29.56,3.0,WSW,21.9,29.9,0.08,,Overcast,240,2013-03-24 15:55:00
11:15 AM,46.4,37.4,71,29.55,10.0,WSW,20.7,29.9,0.01,,Overcast,240,2013-03-24 16:15:00
11:35 AM,46.4,37.4,71,29.55,10.0,WSW,21.9,31.1,0.01,,Overcast,250,2013-03-24 16:35:00
11:55 AM,46.4,37.4,71,29.55,10.0,WSW,21.9,33.4,0.01,,Overcast,240,2013-03-24 16:55:00
12:15 PM,46.4,37.4,71,29.55,10.0,WSW,21.9,27.6,N/A,,Overcast,250,2013-03-24 17:15:00
12:55 PM,48.2,37.4,66,29.55,10.0,WSW,27.6,41.4,N/A,,Mostly Cloudy,250,2013-03-24 17:55:00
1:15 PM,48.2,35.6,62,29.56,10.0,WSW,28.8,38.0,0.01,,Overcast,250,2013-03-24 18:15:00
1:35 PM,44.6,33.8,66,29.57,10.0,WSW,29.9,38.0,0.01,,Overcast,250,2013-03-24 18:35:00
2:15 PM,44.6,30.2,57,29.58,10.0,WSW,19.6,27.6,N/A,,Overcast,250,2013-03-24 19:15:00
2:35 PM,44.6,30.2,57,29.58,10.0,WSW,24.2,33.4,N/A,,Overcast,250,2013-03-24 19:35:00
2:55 PM,44.6,28.4,53,29.58,10.0,West,24.2,39.1,N/A,,Overcast,260,2013-03-24 19:55:00
3:36 PM,42.8,28.4,57,29.60,10.0,WSW,27.6,36.8,N/A,,Overcast,250,2013-03-24 20:36:00
4:15 PM,39.2,28.4,65,29.63,9.0,West,20.7,33.4,N/A,,Overcast,280,2013-03-24 21:15:00
4:35 PM,39.2,26.6,61,29.64,10.0,West,20.7,28.8,N/A,,Overcast,280,2013-03-24 21:35:00
4:55 PM,39.2,26.6,61,29.66,10.0,West,24.2,36.8,N/A,,Overcast,280,2013-03-24 21:55:00
5:15 PM,39.2,26.6,61,29.68,10.0,West,21.9,32.2,N/A,,Overcast,270,2013-03-24 22:15:00
5:35 PM,39.2,24.8,56,29.70,10.0,West,23.0,34.5,N/A,,Overcast,280,2013-03-24 22:35:00
5:55 PM,39.2,23.0,52,29.72,10.0,West,21.9,36.8,N/A,,Overcast,280,2013-03-24 22:55:00
6:15 PM,39.2,23.0,52,29.74,10.0,West,20.7,34.5,N/A,,Overcast,280,2013-03-24 23:15:00
6:35 PM,39.2,23.0,52,29.75,10.0,WNW,16.1,28.8,N/A,,Overcast,290,2013-03-24 23:35:00
7:55 PM,37.4,23.0,56,29.81,10.0,WNW,15.0,27.6,N/A,,Overcast,290,2013-03-25 00:55:00
8:15 PM,37.4,21.2,52,29.82,10.0,WNW,13.8,23.0,N/A,,Overcast,300,2013-03-25 01:15:00
8:35 PM,37.4,21.2,52,29.84,10.0,WNW,12.7,21.9,N/A,,Overcast,300,2013-03-25 01:35:00
8:55 PM,37.4,21.2,52,29.85,10.0,WNW,13.8,20.7,N/A,,Overcast,290,2013-03-25 01:55:00
9:15 PM,37.4,21.2,52,29.86,10.0,WNW,13.8,27.6,N/A,,Overcast,290,2013-03-25 02:15:00
9:35 PM,37.4,21.2,52,29.87,10.0,West,17.3,25.3,N/A,,Overcast,280,2013-03-25 02:35:00
9:55 PM,37.4,19.4,48,29.87,10.0,WNW,13.8,28.8,N/A,,Overcast,290,2013-03-25 02:55:00
10:35 PM,37.4,19.4,48,29.89,10.0,West,17.3,24.2,N/A,,Overcast,280,2013-03-25 03:35:00
10:55 PM,35.6,19.4,52,29.90,10.0,WNW,16.1,24.2,N/A,,Overcast,290,2013-03-25 03:55:00
11:16 PM,35.6,19.4,52,29.91,10.0,West,15.0,29.9,N/A,,Overcast,270,2013-03-25 04:16:00
11:35 PM,35.6,19.4,52,29.91,10.0,West,15.0,26.5,N/A,,Overcast,280,2013-03-25 04:35:00
11:55 PM,35.6,19.4,52,29.92,10.0,West,17.3,26.5,N/A,,Overcast,280,2013-03-25 04:55:00